Location: NJAA Observatory
(40.6819°N, 74.8979°W)
Time: 15:11:34
(UTC-04:00)

Courier 1B - All Passes

Search period start: 03 August 2015 00:00
Search period end: 13 August 2015 00:00
Orbit: 963 x 1209 km, 28.3° (Epoch: 02 August)

Date Brightness Start Highest point End Pass type
(mag) Time Alt. Az. Time Alt. Az. Time Alt. Az.
03 Aug - 15:49:39 10° SSW 15:53:52 18° SSE 15:58:07 10° ESE daylight
03 Aug - 17:41:43 10° SW 17:47:01 27° S 17:52:18 10° ESE daylight
03 Aug - 19:35:10 10° WSW 19:40:12 24° S 19:45:14 10° SE daylight
03 Aug - 21:30:34 10° SW 21:33:18 13° SSW 21:35:52 10° S visible
04 Aug - 14:56:50 10° SSW 15:00:22 15° SSE 15:03:58 10° SE daylight
04 Aug - 16:48:15 10° SW 16:53:31 25° S 16:58:42 10° ESE daylight
04 Aug - 18:41:29 10° WSW 18:46:43 26° S 18:51:54 10° SE daylight
04 Aug - 20:36:05 10° SW 20:39:49 16° SSW 20:43:28 10° SSE visible
05 Aug - 14:04:33 10° S 14:06:51 12° SSE 14:09:20 10° SE daylight
05 Aug - 15:54:52 10° SW 16:00:00 23° S 16:05:02 10° ESE daylight
05 Aug - 17:47:48 10° WSW 17:53:13 27° S 17:58:31 10° SE daylight
05 Aug - 19:41:58 10° WSW 19:46:21 19° SSW 19:50:39 10° SSE daylight
06 Aug - 15:01:34 10° SSW 15:06:29 21° SSE 15:11:18 10° ESE daylight
06 Aug - 16:54:11 10° SW 16:59:42 28° S 17:05:04 10° ESE daylight
06 Aug - 18:48:01 10° WSW 18:52:52 22° SSW 18:57:37 10° SE daylight
07 Aug - 14:08:25 10° SSW 14:12:56 18° SSE 14:17:24 10° ESE daylight
07 Aug - 16:00:35 10° SW 16:06:10 27° S 16:11:34 10° ESE daylight
07 Aug - 17:54:10 10° WSW 17:59:23 25° S 18:04:27 10° SE daylight
07 Aug - 19:49:34 10° SW 19:52:26 13° SSW 19:55:07 10° S daylight
08 Aug - 13:15:31 10° SSW 13:19:23 15° SSE 13:23:17 10° SE daylight
08 Aug - 15:07:02 10° SW 15:12:37 26° S 15:18:01 10° ESE daylight
08 Aug - 17:00:23 10° WSW 17:05:52 27° S 17:11:11 10° SE daylight
08 Aug - 18:55:03 10° WSW 18:58:58 16° SSW 19:02:45 10° SSE daylight
09 Aug - 12:23:05 10° S 12:25:49 12° SSE 12:28:42 10° SE daylight
09 Aug - 14:13:33 10° SW 14:19:03 24° S 14:24:22 10° ESE daylight
09 Aug - 16:06:37 10° WSW 16:12:20 28° S 16:17:50 10° SE daylight
09 Aug - 18:00:51 10° WSW 18:05:30 20° SSW 18:09:58 10° SSE daylight
10 Aug - 13:20:10 10° SSW 13:25:28 22° SSE 13:30:37 10° ESE daylight
10 Aug - 15:12:53 10° SW 15:18:47 29° S 15:24:25 10° ESE daylight
10 Aug - 17:06:49 10° WSW 17:12:01 23° SSW 17:16:59 10° SE daylight
10 Aug - 19:03:49 10° SW 19:05:01 10° SSW 19:05:59 10° SSW daylight
11 Aug - 12:26:58 10° SSW 12:31:52 19° SSE 12:36:41 10° ESE daylight
11 Aug - 14:19:12 10° SW 14:25:12 29° S 14:30:55 10° ESE daylight
11 Aug - 16:12:53 10° WSW 16:18:29 26° S 16:23:50 10° SE daylight
11 Aug - 18:08:12 10° SW 18:11:34 14° SSW 18:14:42 10° S daylight
12 Aug - 11:34:02 10° SSW 11:38:15 16° SSE 11:42:31 10° ESE daylight
12 Aug - 13:25:35 10° SW 13:31:35 27° S 13:37:20 10° ESE daylight
12 Aug - 15:19:00 10° WSW 15:24:56 28° S 15:30:34 10° SE daylight
12 Aug - 17:13:41 10° WSW 17:18:05 18° SSW 17:22:16 10° SSE daylight
